Location: New York
(40.7127°N, 74.0060°W)
Time: 12:17:34
(UTC-04:00)

NOAA 18 - Pass Details

Date: 24 April 2024
Orbit: 837 x 859 km, 98.9° (Epoch: 20 September)

Event Time Altitude Azimuth Distance (km) Brightness Sun altitude
Exits shadow 00:41:44 12° 287° (WNW) 2,363 7.7 -36.2°
Drops below altitude 10° 00:42:46 10° 297° (WNW) 2,500 7.9 -36.2°
Sets 00:46:40 0° 325° (NW) 3,441 9.1 -36.2°
